Location: Prague
(50.0830°N, 14.4670°E)
Time: 18:17:25
(UTC+01:00)

VELOX 1 - Visible Passes

Search period start: 03 December 2021 00:00
Search period end: 13 December 2021 00:00
Orbit: 627 x 641 km, 98.3° (Epoch: 03 December)

Date Brightness Start Highest point End Pass type
(mag) Time Alt. Az. Time Alt. Az. Time Alt. Az.
03 Dec ? 17:55:24 10° N 17:59:12 28° WNW 18:02:57 10° WSW visible
04 Dec ? 16:40:19 10° NNE 16:44:43 61° ESE 16:49:04 10° S visible
04 Dec ? 18:17:31 10° NNW 18:20:40 19° WNW 18:23:47 10° WSW visible
05 Dec ? 17:01:58 10° NNE 17:06:25 84° WNW 17:10:49 10° SSW visible
05 Dec ? 18:39:58 10° NNW 18:42:04 13° NW 18:44:09 10° W visible
06 Dec ? 17:23:43 10° N 17:28:02 53° WNW 17:32:18 10° SW visible
07 Dec ? 17:45:36 10° N 17:49:36 34° WNW 17:53:35 10° SW visible
08 Dec ? 16:30:43 10° NNE 16:35:01 48° E 16:39:16 10° S visible
08 Dec ? 18:07:36 10° N 18:11:06 23° WNW 18:14:34 10° WSW visible
09 Dec ? 16:52:17 10° NNE 16:56:44 78° ESE 17:01:08 10° S visible
09 Dec ? 18:29:52 10° NNW 18:32:32 16° WNW 18:35:11 10° W visible
10 Dec ? 17:13:59 10° N 17:18:23 67° WNW 17:22:44 10° SSW visible
10 Dec ? 18:52:49 10° NW 18:53:54 11° NW 18:54:58 10° WNW visible
11 Dec ? 17:35:48 10° N 17:39:58 42° WNW 17:44:06 10° SW visible
12 Dec ? 17:57:44 10° N 18:01:30 28° WNW 18:05:13 10° WSW visible
